Location: Holyhead Bay
(53.3667°N, 4.6667°W)
Time: 06:41:56
(UTC+00:00)

Cosmos 1666 Rocket - Pass Details

Date: 24 November 2020
Orbit: 604 x 633 km, 82.5° (Epoch: 23 January)

Event Time Altitude Azimuth Distance (km) Brightness Sun altitude
Rises 17:13:22 0° 355° (N) 2,895 6.8 -9.1°
Reaches altitude 10° 17:15:52 10° 8° (N) 1,990 5.9 -9.4°
Maximum altitude 17:19:40 28° 67° (ENE) 1,183 4.4 -10.0°
Drops below altitude 10° 17:23:28 10° 127° (SE) 1,993 5.9 -10.5°
Sets 17:25:58 0° 139° (SE) 2,900 6.8 -10.8°
